DW3706 Weather Reports


time (UTC)temp
C
wind
direction
speed
KPH
gust
KPH
rain 1hr
cm
rain 24hr
cm
rain mn
cm
humidity
%
barometer
mb
20260507070504 13 350 1.6 11.3 0.00 0.15 0.00 81 1006.1
20260507070010 13 354 1.6 11.3 0.00 0.15 0.00 81 1006.0
20260507065506 13 291 1.6 11.3 0.00 0.15 0.00 82 1006.2
20260507065004 13 178 3.2 11.3 0.00 0.15 0.00 83 1006.2
20260507064509 13 326 3.2 14.5 0.00 0.15 0.00 84 1006.2
20260507064004 13 356 3.2 14.5 0.00 0.15 0.00 83 1006.2
20260507063508 13 25 1.6 9.7 0.00 0.15 0.00 83 1006.4
20260507063005 13 360 1.6 12.9 0.00 0.15 0.00 83 1006.2
20260507062503 13 102 1.6 12.9 0.00 0.15 0.00 83 1005.9
20260507062011 13 24 4.8 9.7 0.00 0.15 0.00 83 1006.0
20260507061522 13 350 0.0 8.0 0.00 0.15 0.00 84 1006.0
20260507061004 14 8 1.6 8.0 0.00 0.15 0.00 84 1006.1
20260507060506 14 357 1.6 8.0 0.00 0.15 0.00 84 1006.1
20260507060021 14 13 1.6 11.3 0.00 0.15 0.00 84 1006.1
20260507055504 14 178 1.6 11.3 0.00 0.15 0.00 84 1006.4
20260507055004 14 354 3.2 9.7 0.00 0.15 0.00 85 1006.2
20260507054508 15 5 3.2 9.7 0.00 0.15 0.00 86 1006.6
20260507054010 15 228 0.0 4.8 0.00 0.15 0.00 86 1006.5
20260507053506 15 228 1.6 4.8 0.00 0.15 0.00 86 1006.5
20260507053013 15 9 0.0 4.8 0.00 0.15 0.00 86 1006.5
20260507052507 15 277 1.6 4.8 0.00 0.15 0.00 87 1006.3
20260507052007 15 286 0.0 6.4 0.00 0.15 0.00 87 1006.2
20260507051512 15 259 1.6 11.3 0.00 0.15 0.00 87 1006.1
20260507051007 15 321 3.2 8.0 0.00 0.15 0.00 88 1006.3
20260507050506 15 206 1.6 12.9 0.00 0.15 0.00 88 1006.3
20260507050024 15 190 4.8 11.3 0.00 0.15 0.00 89 1006.4
20260507045507 15 242 3.2 11.3 0.00 0.15 0.00 89 1006.2
20260507045007 15 233 6.4 11.3 0.00 0.15 0.00 90 1006.2
20260507044505 15 231 3.2 6.4 0.00 0.15 0.00 90 1006.1
20260507044005 15 214 1.6 8.0 0.00 0.15 0.00 91 1006.0
20260507043506 15 246 3.2 9.7 0.00 0.15 0.00 91 1006.1
20260507043011 15 213 4.8 9.7 0.00 0.15 0.00 91 1006.0
20260507042507 15 248 1.6 6.4 0.00 0.15 0.00 91 1006.0
20260507042006 15 223 3.2 12.9 0.00 0.15 0.00 91 1006.0
20260507041516 15 265 3.2 14.5 0.00 0.15 0.00 91 1006.0
20260507041010 15 223 4.8 16.1 0.00 0.15 0.00 91 1006.2
20260507040506 15 217 4.8 16.1 0.00 0.15 0.00 91 1006.2
20260507040018 15 234 4.8 12.9 0.00 0.15 0.00 91 1006.4
20260507035508 15 239 4.8 16.1 0.00 0.15 0.15 91 1006.2
20260507035004 15 218 6.4 16.1 0.00 0.15 0.15 91 1006.4
20260507034513 15 242 6.4 14.5 0.00 0.15 0.15 91 1006.2
20260507034008 15 242 6.4 14.5 0.00 0.15 0.15 91 1006.2
20260507033510 15 240 4.8 17.7 0.00 0.15 0.15 91 1006.2
20260507033010 14 233 8.0 17.7 0.00 0.15 0.15 91 1006.1
20260507032507 14 250 4.8 16.1 0.00 0.15 0.15 91 1006.1
20260507032007 14 279 4.8 16.1 0.00 0.15 0.15 91 1006.0
20260507031507 14 203 8.0 16.1 0.00 0.15 0.15 91 1006.0
20260507031009 14 259 4.8 16.1 0.00 0.15 0.15 91 1005.8
20260507030509 14 228 6.4 16.1 0.00 0.15 0.15 91 1005.7
20260507030020 14 236 6.4 16.1 0.00 0.15 0.15 91 1005.6
20260507025509 14 212 4.8 14.5 0.00 0.15 0.15 91 1005.6
20260507025008 14 229 3.2 12.9 0.00 0.15 0.15 91 1005.8
20260507024522 14 248 6.4 16.1 0.00 0.15 0.15 91 1006.0
20260507024012 14 213 4.8 16.1 0.00 0.15 0.15 91 1005.9
20260507023508 14 261 6.4 16.1 0.00 0.15 0.15 91 1005.8
20260507023020 14 247 8.0 16.1 0.00 0.15 0.15 91 1005.8
20260507022511 14 249 11.3 16.1 0.00 0.15 0.15 91 1005.8
20260507022007 14 254 4.8 14.5 0.00 0.15 0.15 91 1005.8
20260507021514 14 263 8.0 17.7 0.00 0.15 0.15 91 1005.9
20260507021007 13 259 8.0 17.7 0.00 0.15 0.15 91 1005.9
20260507020508 13 269 6.4 17.7 0.00 0.15 0.15 91 1005.8
20260507020016 13 219 3.2 17.7 0.00 0.15 0.15 91 1005.9
20260507015506 13 246 4.8 16.1 0.00 0.15 0.15 91 1005.8
20260507015010 13 214 3.2 17.7 0.00 0.15 0.15 91 1005.9
20260507014511 13 249 6.4 16.1 0.00 0.15 0.15 91 1006.1
20260507014009 13 232 6.4 17.7 0.00 0.15 0.15 91 1006.0
20260507013507 13 232 8.0 19.3 0.00 0.15 0.15 91 1006.1
20260507013026 13 246 6.4 19.3 0.00 0.15 0.15 91 1006.1
20260507012506 13 252 8.0 20.9 0.00 0.15 0.15 90 1006.3
20260507012012 13 233 8.0 20.9 0.00 0.15 0.15 90 1006.2
20260507011528 13 228 8.0 19.3 0.00 0.15 0.15 90 1006.3
20260507011004 13 252 11.3 20.9 0.00 0.15 0.15 90 1006.4
20260507010511 13 258 9.7 20.9 0.00 0.15 0.15 90 1006.4
20260507010023 13 237 9.7 22.5 0.03 0.15 0.15 90 1006.4
20260507005504 13 250 11.3 22.5 0.03 0.15 0.15 90 1006.4
20260507005006 13 261 8.0 22.5 0.03 0.15 0.15 90 1006.4
20260507004520 13 233 4.8 17.7 0.03 0.15 0.15 90 1006.3
20260507004007 13 254 4.8 20.9 0.03 0.15 0.15 90 1006.3
20260507003510 13 260 8.0 20.9 0.03 0.15 0.15 90 1006.4
20260507003019 13 272 8.0 24.1 0.05 0.15 0.15 90 1006.3
20260507002503 13 227 11.3 24.1 0.05 0.15 0.15 90 1006.2
20260507002003 13 234 9.7 20.9 0.05 0.15 0.15 90 1006.2
20260507001507 13 228 6.4 20.9 0.05 0.15 0.15 90 1006.1
20260507001003 13 250 6.4 20.9 0.05 0.15 0.15 90 1006.1
20260507000506 13 236 9.7 20.9 0.05 0.15 0.15 90 1006.0
20260507000012 13 223 9.7 17.7 0.03 0.13 0.13 90 1006.1
20260506235509 13 242 9.7 22.5 0.03 0.13 0.13 90 1006.1
20260506235007 13 199 6.4 22.5 0.03 0.13 0.13 90 1006.0
20260506234512 13 259 9.7 22.5 0.03 0.13 0.13 89 1006.0
20260506234011 13 236 11.3 22.5 0.03 0.13 0.13 89 1005.9
20260506233509 14 243 11.3 22.5 0.03 0.13 0.13 89 1005.9
20260506233009 14 215 11.3 20.9 0.00 0.10 0.10 89 1006.0
20260506232506 14 245 9.7 20.9 0.00 0.10 0.10 89 1005.9
20260506232010 14 247 9.7 20.9 0.03 0.10 0.10 89 1005.9
20260506231507 14 241 9.7 20.9 0.03 0.10 0.10 89 1006.2
20260506231004 14 250 8.0 19.3 0.03 0.10 0.10 89 1006.4
20260506230504 14 240 12.9 19.3 0.03 0.10 0.10 89 1006.4
20260506230013 14 217 9.7 19.3 0.03 0.10 0.10 89 1006.2
20260506225504 14 238 9.7 19.3 0.03 0.10 0.10 89 1006.1
20260506225006 14 257 9.7 22.5 0.05 0.10 0.10 89 1006.2
20260506224515 14 246 11.3 22.5 0.05 0.10 0.10 89 1006.3
20260506224008 14 188 8.0 22.5 0.05 0.10 0.10 89 1006.5
20260506223507 14 220 12.9 22.5 0.05 0.10 0.10 89 1006.6
20260506223016 14 261 6.4 17.7 0.08 0.10 0.10 89 1006.6
20260506222510 15 199 8.0 17.7 0.08 0.10 0.10 88 1006.7
20260506222005 15 263 4.8 20.9 0.05 0.08 0.08 88 1006.7
20260506221516 15 213 6.4 20.9 0.05 0.08 0.08 88 1006.8
20260506221009 15 256 11.3 20.9 0.05 0.08 0.08 87 1006.9
20260506220504 15 256 6.4 20.9 0.05 0.08 0.08 87 1006.8
20260506220008 15 223 6.4 20.9 0.05 0.08 0.08 88 1006.9
20260506215507 15 186 6.4 17.7 0.05 0.08 0.08 87 1007.1
20260506215009 15 198 9.7 19.3 0.03 0.05 0.05 87 1007.1
20260506214510 15 209 6.4 20.9 0.05 0.05 0.05 87 1007.1
20260506214007 15 206 8.0 20.9 0.05 0.05 0.05 86 1007.1
20260506213510 15 229 8.0 20.9 0.05 0.05 0.05 86 1007.0
20260506213025 15 231 6.4 24.1 0.03 0.03 0.03 86 1007.0
20260506212507 15 231 6.4 25.7 0.03 0.03 0.03 86 1007.1
20260506212010 15 248 8.0 25.7 0.03 0.03 0.03 86 1007.1
20260506211537 15 199 8.0 20.9 0.03 0.03 0.03 85 1007.2
20260506211009 16 232 8.0 20.9 0.03 0.03 0.03 85 1007.2
20260506210507 16 217 8.0 20.9 0.03 0.03 0.03 85 1007.1
20260506210031 16 238 11.3 20.9 0.03 0.03 0.03 84 1007.2
20260506205511 16 222 4.8 25.7 0.03 0.03 0.03 84 1007.2
20260506205007 16 234 11.3 25.7 0.03 0.03 0.03 83 1007.3
20260506204516 16 244 4.8 22.5 0.00 0.00 0.00 82 1007.3
20260506204007 16 214 9.7 22.5 0.00 0.00 0.00 82 1007.2
20260506203506 16 237 12.9 22.5 0.00 0.00 0.00 81 1007.2
20260506203015 16 211 9.7 20.9 0.00 0.00 0.00 81 1007.2
20260506202510 16 158 9.7 20.9 0.00 0.00 0.00 80 1007.2
20260506202012 16 248 9.7 17.7 0.00 0.00 0.00 80 1007.1
20260506201511 16 249 6.4 22.5 0.00 0.00 0.00 80 1007.1
20260506201009 16 242 6.4 22.5 0.00 0.00 0.00 79 1007.2
20260506200508 16 203 6.4 20.9 0.00 0.00 0.00 79 1007.2
20260506200029 16 221 9.7 20.9 0.00 0.00 0.00 79 1007.2
20260506195511 16 250 6.4 22.5 0.00 0.00 0.00 78 1007.3
20260506195013 16 229 11.3 22.5 0.00 0.00 0.00 77 1007.3
20260506194510 16 257 11.3 24.1 0.00 0.00 0.00 77 1007.3
20260506194008 16 163 12.9 24.1 0.00 0.00 0.00 76 1007.5
20260506193507 17 209 6.4 20.9 0.00 0.00 0.00 76 1007.5
20260506193025 17 179 9.7 22.5 0.00 0.00 0.00 75 1007.6
20260506192510 17 207 14.5 22.5 0.00 0.00 0.00 74 1007.6
20260506192009 17 227 9.7 20.9 0.00 0.00 0.00 73 1007.5
20260506191522 17 238 9.7 20.9 0.00 0.00 0.00 72 1007.4
20260506191009 17 213 11.3 20.9 0.00 0.00 0.00 71 1007.4
20260506190506 17 257 8.0 17.7 0.00 0.00 0.00 70 1007.3
20260506190020 17 251 9.7 25.7 0.00 0.00 0.00 70 1007.4
20260506185510 18 193 11.3 25.7 0.00 0.00 0.00 70 1007.5
20260506185007 18 215 12.9 24.1 0.00 0.00 0.00 70 1007.4
20260506184513 18 190 11.3 24.1 0.00 0.00 0.00 69 1007.4
20260506184008 18 261 9.7 22.5 0.00 0.00 0.00 69 1007.5
20260506183507 18 255 8.0 27.4 0.00 0.00 0.00 69 1007.5
20260506183010 18 227 8.0 27.4 0.00 0.00 0.00 69 1007.5
20260506182505 18 268 14.5 30.6 0.00 0.00 0.00 68 1007.6
20260506182011 18 173 12.9 30.6 0.00 0.00 0.00 68 1007.6
20260506181534 18 231 11.3 27.4 0.00 0.00 0.00 67 1007.7
20260506181006 19 209 12.9 27.4 0.00 0.00 0.00 66 1007.7
20260506180507 19 239 11.3 25.7 0.00 0.00 0.00 65 1007.8
20260506180025 19 225 11.3 27.4 0.00 0.00 0.00 65 1007.9
20260506175509 19 236 12.9 32.2 0.00 0.00 0.00 65 1007.9
20260506175008 19 196 17.7 32.2 0.00 0.00 0.00 65 1008.1
20260506174528 19 190 12.9 29.0 0.00 0.00 0.00 65 1008.0
20260506174014 19 253 9.7 29.0 0.00 0.00 0.00 66 1008.0
20260506173508 19 259 16.1 24.1 0.00 0.00 0.00 65 1008.2
20260506173038 20 244 9.7 22.5 0.00 0.00 0.00 64 1008.2
20260506172510 20 237 9.7 24.1 0.00 0.00 0.00 64 1008.2
20260506172009 20 202 6.4 24.1 0.00 0.00 0.00 64 1008.1
20260506171522 19 248 11.3 24.1 0.00 0.00 0.00 66 1008.0
20260506171006 19 252 9.7 22.5 0.00 0.00 0.00 66 1008.1
20260506170508 19 190 11.3 27.4 0.00 0.00 0.00 66 1008.2
20260506170016 19 218 12.9 27.4 0.00 0.00 0.00 65 1008.3
20260506165508 19 269 9.7 22.5 0.00 0.00 0.00 66 1008.3
20260506165009 19 201 8.0 19.3 0.00 0.00 0.00 66 1008.3
20260506164528 19 258 9.7 19.3 0.00 0.00 0.00 66 1008.4
20260506164013 19 231 8.0 20.9 0.00 0.00 0.00 65 1008.4
20260506163511 19 215 9.7 22.5 0.00 0.00 0.00 64 1008.6
20260506163029 20 211 6.4 25.7 0.00 0.00 0.00 64 1008.7
20260506162509 19 258 11.3 25.7 0.00 0.00 0.00 65 1008.8
20260506162017 19 236 12.9 25.7 0.00 0.00 0.00 65 1008.8
20260506161514 19 256 8.0 25.7 0.00 0.00 0.00 65 1008.9
20260506161016 19 224 11.3 22.5 0.00 0.00 0.00 65 1008.9
20260506160507 19 236 11.3 22.5 0.00 0.00 0.00 65 1009.1
20260506160023 19 246 11.3 22.5 0.00 0.00 0.00 65 1009.2
20260506155510 19 208 9.7 19.3 0.00 0.00 0.00 65 1009.3
20260506155007 20 38 8.0 29.0 0.00 0.00 0.00 64 1009.5
20260506154525 20 169 11.3 29.0 0.00 0.00 0.00 64 1009.4
20260506154012 20 273 12.9 27.4 0.00 0.00 0.00 64 1009.5
20260506153515 20 212 12.9 25.7 0.00 0.00 0.00 64 1009.5
20260506153025 20 186 9.7 22.5 0.00 0.00 0.00 64 1009.6
20260506152508 20 250 9.7 22.5 0.00 0.00 0.00 64 1009.7
20260506152013 20 244 9.7 30.6 0.00 0.00 0.00 65 1009.7
20260506151516 20 233 12.9 30.6 0.00 0.00 0.00 64 1009.8
20260506151009 20 228 11.3 25.7 0.00 0.00 0.00 65 1009.8
20260506150510 19 212 11.3 25.7 0.00 0.00 0.00 66 1009.8
20260506150017 19 245 12.9 24.1 0.00 0.00 0.00 65 1009.8
20260506145507 19 228 11.3 24.1 0.00 0.00 0.00 66 1009.7
20260506145008 19 213 8.0 24.1 0.00 0.00 0.00 65 1009.7
20260506144521 20 250 12.9 24.1 0.00 0.00 0.00 65 1009.6
20260506144008 19 246 9.7 24.1 0.00 0.00 0.00 66 1009.6
20260506143509 19 247 12.9 22.5 0.00 0.00 0.00 66 1009.6
20260506143027 19 219 11.3 20.9 0.00 0.00 0.00 67 1009.5
20260506142514 19 263 11.3 20.9 0.00 0.00 0.00 67 1009.6
20260506142008 19 177 11.3 22.5 0.00 0.00 0.00 67 1009.5
20260506141524 18 282 6.4 22.5 0.00 0.00 0.00 68 1009.5
20260506141010 18 225 6.4 19.3 0.00 0.00 0.00 69 1009.6
20260506140508 18 230 11.3 19.3 0.00 0.00 0.00 69 1009.6
20260506140025 18 225 8.0 17.7 0.00 0.00 0.00 70 1009.6
20260506135511 18 182 9.7 20.9 0.00 0.00 0.00 71 1009.6
20260506135007 17 213 9.7 20.9 0.00 0.00 0.00 71 1009.7
20260506134520 17 202 9.7 22.5 0.00 0.00 0.00 72 1010.0
20260506134011 17 236 12.9 22.5 0.00 0.00 0.00 73 1010.1
20260506133513 17 256 12.9 19.3 0.00 0.00 0.00 73 1010.1
20260506133023 17 226 6.4 19.3 0.00 0.00 0.00 73 1010.2
20260506132511 17 187 6.4 20.9 0.00 0.00 0.00 73 1010.2
20260506132012 17 278 9.7 20.9 0.00 0.00 0.00 74 1010.1
20260506131526 17 242 8.0 20.9 0.00 0.00 0.00 74 1010.0
20260506131009 17 258 11.3 20.9 0.00 0.00 0.00 74 1010.1
20260506130516 17 259 8.0 17.7 0.00 0.00 0.00 75 1010.2
20260506130026 17 227 8.0 17.7 0.00 0.00 0.00 75 1010.2
20260506125510 16 225 6.4 17.7 0.00 0.00 0.00 75 1010.2
20260506125009 16 232 6.4 17.7 0.00 0.00 0.00 76 1010.2
20260506124526 16 200 6.4 19.3 0.00 0.00 0.00 77 1010.4
20260506124010 16 181 6.4 24.1 0.00 0.00 0.00 78 1010.3
20260506123508 15 207 11.3 24.1 0.00 0.00 0.00 79 1010.2
20260506123024 15 212 12.9 22.5 0.00 0.00 0.00 78 1010.1
20260506122510 16 236 9.7 22.5 0.00 0.00 0.00 79 1010.1
20260506122006 15 223 11.3 22.5 0.00 0.00 0.00 80 1010.0
20260506121525 15 198 11.3 24.1 0.00 0.00 0.00 79 1010.0
20260506121011 15 254 9.7 24.1 0.00 0.00 0.00 80 1010.2
20260506120510 15 204 8.0 22.5 0.00 0.00 0.00 80 1010.4
20260506120020 15 230 12.9 22.5 0.00 0.00 0.00 81 1010.3
20260506115508 15 133 8.0 20.9 0.00 0.00 0.00 81 1010.4
20260506115012 15 195 8.0 19.3 0.00 0.00 0.00 81 1010.6
20260506114528 15 229 9.7 20.9 0.00 0.00 0.00 81 1010.7
20260506114011 15 202 9.7 20.9 0.00 0.00 0.00 82 1010.6
20260506113510 15 223 6.4 19.3 0.00 0.00 0.00 82 1010.7
20260506113022 15 232 9.7 19.3 0.00 0.00 0.00 83 1010.4
20260506112509 14 137 6.4 20.9 0.00 0.00 0.00 83 1010.5
20260506112009 14 240 9.7 20.9 0.00 0.00 0.00 83 1010.5
20260506111524 14 239 11.3 22.5 0.00 0.00 0.00 83 1010.3
20260506111007 14 225 12.9 22.5 0.00 0.00 0.00 82 1010.4
20260506110511 14 238 12.9 22.5 0.00 0.00 0.00 83 1010.4
20260506110028 14 221 14.5 24.1 0.00 0.00 0.00 83 1010.3
20260506105511 14 229 12.9 24.1 0.00 0.00 0.00 82 1010.4
20260506105011 14 269 9.7 19.3 0.00 0.00 0.00 82 1010.5
20260506104553 14 226 11.3 19.3 0.00 0.00 0.00 82 1010.5
20260506104009 14 244 6.4 17.7 0.00 0.00 0.00 82 1010.6
20260506103510 14 183 8.0 20.9 0.00 0.00 0.00 82 1010.6
20260506103024 15 220 11.3 20.9 0.00 0.00 0.00 81 1010.5
20260506102512 15 229 8.0 20.9 0.00 0.00 0.00 81 1010.4
20260506102010 15 229 6.4 20.9 0.00 0.00 0.00 81 1010.4
20260506101524 15 202 6.4 22.5 0.00 0.00 0.00 81 1010.4
20260506101008 15 197 8.0 22.5 0.00 0.00 0.00 81 1010.4
20260506100508 15 235 9.7 20.9 0.00 0.00 0.00 81 1010.2
20260506100036 15 172 9.7 19.3 0.00 0.00 0.00 81 1010.1
20260506095505 15 256 9.7 20.9 0.00 0.00 0.00 81 1010.2
20260506095009 15 234 8.0 20.9 0.00 0.00 0.00 81 1010.2
20260506094512 15 246 6.4 19.3 0.00 0.00 0.00 81 1010.2
20260506094006 15 207 8.0 20.9 0.00 0.00 0.00 81 1010.2
20260506093502 15 227 6.4 24.1 0.00 0.00 0.00 81 1010.1
20260506093014 15 215 6.4 27.4 0.00 0.00 0.00 81 1010.1
20260506092509 15 238 11.3 27.4 0.00 0.00 0.00 81 1010.1
20260506092010 15 257 6.4 22.5 0.00 0.00 0.00 80 1010.1
20260506091510 15 243 11.3 22.5 0.00 0.00 0.00 80 1010.0
20260506091010 15 225 9.7 24.1 0.00 0.00 0.00 80 1010.1
20260506090513 15 218 12.9 24.1 0.00 0.00 0.00 80 1010.2
20260506090025 15 211 8.0 24.1 0.00 0.00 0.00 79 1010.2
20260506085506 15 197 8.0 24.1 0.00 0.00 0.00 79 1010.3
20260506085006 15 267 11.3 24.1 0.00 0.00 0.00 79 1010.1
20260506084510 15 215 6.4 22.5 0.00 0.00 0.00 79 1010.2
20260506084009 15 265 8.0 22.5 0.00 0.00 0.00 78 1010.2
20260506083506 15 242 11.3 24.1 0.00 0.00 0.00 78 1010.2
20260506083035 15 209 8.0 25.7 0.00 0.00 0.00 78 1010.2
20260506082505 15 232 8.0 25.7 0.00 0.00 0.00 78 1010.1
20260506082006 15 208 9.7 25.7 0.00 0.00 0.00 78 1010.1
20260506081520 15 259 9.7 25.7 0.00 0.00 0.00 78 1010.0
20260506081010 15 221 9.7 25.7 0.00 0.00 0.00 77 1010.1
20260506080505 15 247 12.9 25.7 0.00 0.00 0.00 77 1010.0
20260506073512 15 243 12.9 22.5 0.00 0.00 0.00 77 1010.0
20260506073008 15 202 9.7 30.6 0.00 0.00 0.00 77 1010.0
20260506072508 15 223 14.5 30.6 0.00 0.00 0.00 77 1010.0
20260506072010 15 240 8.0 27.4 0.00 0.00 0.00 77 1010.0
20260506071522 15 207 11.3 32.2 0.00 0.00 0.00 76 1010.0
20260506071006 15 219 9.7 32.2 0.00 0.00 0.00 77 1009.9